Tracking 19570 objects as of 21-Feb-2019
HD Live streaming from Space Station
objects crossing your sky now

NANOSAT(1)

Track NANOSAT(1) now!
10-day predictions
NANOSAT(1) is classified as:


NORAD ID: 28493
Int'l Code: 2004-049B
Perigee: 654.1 km
Apogee: 660.1 km
Inclination: 98.1 °
Period: 97.7 minutes
Semi major axis: 7028 km
RCS: 0.2736 m2 (medium)
Launch date: December 18, 2004
Source: Spain (SPN)
Launch site: FRENCH GUIANA (FRGUI)

Will maintain contact with Spanish zone in Antarctica; extremely small magnetic and solar sensors.
aabbcc
Your satellite tracking list
Your tracking list is empty




NASA's NSSDC Master Catalog

Two Line Element Set (TLE):
1 28493U 04049B   19052.21884252  .00000045  00000-0  14861-4 0  9995
2 28493  98.1431 136.0092 0004262 188.0190 172.0951 14.73479684761345
Source of the keplerian elements: AFSPC